Wind_Speed
76 78 79 79 78 78 79 81 81 79 78 75 73 71 71 71 71 71 70 68 65 64 62 62 62 62 61 60 59 58 56 55 54 54 53 53 53 53
65 66 66 68 69 71 73 77 79 80 80 78 76 75 74 73 72 72 72 70 68 66 65 66 66 65 65 64 63 63 62 60 59 59 58 57 57 57
54 56 55 56 58 60 63 67 72 76 79 79 78 77 76 75 74 73 73 72 71 70 69 68 68 68 68 68 67 66 66 64 63 62 62 61 61 60
44 48 48 50 56 60 62 61 62 65 70 73 76 76 76 75 74 73 73 72 72 71 70 70 69 69 69 70 69 68 67 66 65 65 64 65 64 62
38 46 48 50 53 56 56 55 55 56 59 63 67 70 71 71 71 71 71 71 71 71 71 70 69 68 68 68 67 67 67 67 67 66 65 65 64 62
37 43 48 50 51 54 53 52 51 50 51 54 57 61 63 63 64 65 66 68 68 68 68 68 67 66 66 66 66 67 67 66 65 65 65 65 64 64
35 38 44 46 48 49 50 50 50 50 50 52 53 55 56 58 58 58 60 61 63 64 64 65 66 66 67 66 66 65 64 64 64 64 65 65 65 63
36 37 40 43 44 45 46 47 48 48 49 50 53 56 57 57 58 57 57 58 60 61 63 65 65 66 65 64 63 63 63 63 63 63 63 63 63 63
38 38 40 42 42 44 45 46 47 47 46 47 50 54 57 58 57 57 57 58 57 57 58 60 61 61 61 61 61 60 60 60 60 61 61 61 62 62
43 42 42 41 42 44 46 46 47 47 45 45 47 51 54 54 53 54 54 54 53 53 53 53 54 55 55 56 56 57 58 59 59 60 60 60 60 60
43 45 45 43 43 44 46 48 49 48 47 46 48 49 51 51 50 50 50 50 50 50 50 51 50 51 52 51 52 53 54 56 58 59 59 60 59 59
42 44 46 46 46 46 47 49 51 51 50 50 49 49 49 49 49 48 48 47 48 49 50 50 50 51 52 52 52 53 53 54 55 56 57 58 58 58
39 41 44 46 47 47 48 50 52 53 53 53 52 50 50 50 49 48 47 47 47 47 48 50 51 52 53 54 55 55 55 55 54 54 54 55 55 54
40 40 41 42 44 45 47 49 51 52 53 54 53 52 51 50 50 49 47 47 48 48 49 50 52 53 54 55 55 56 56 54 53 52 51 50 49 48
43 42 41 41 42 43 44 46 48 50 51 52 52 51 50 49 49 48 47 47 48 49 50 51 52 52 53 53 54 55 54 52 50 48 46 45 45 44
46 45 44 42 42 43 44 45 46 47 48 50 50 50 49 48 47 46 45 45 46 47 49 50 50 50 50 51 51 51 50 48 46 44 43 42 42 41
48 48 47 46 45 44 45 46 47 47 48 49 49 49 48 48 47 46 45 43 43 44 46 47 48 48 47 46 46 45 44 43 41 40 40 40 40 39
51 51 50 50 49 48 47 47 47 48 49 49 50 50 50 49 47 46 45 43 41 41 42 43 44 44 44 44 44 43 42 40 38 37 37 36 36 36
50 52 53 53 53 52 51 50 49 49 50 50 49 49 49 49 48 46 45 43 41 40 40 41 41 41 42 43 43 43 41 39 38 36 35 34 34 34
41 48 53 55 56 56 55 54 53 52 51 51 50 49 49 49 48 46 45 43 41 40 40 40 41 41 41 42 43 43 42 41 39 38 36 34 34 33
29 37 46 53 57 58 59 58 57 56 55 53 52 51 50 49 48 47 46 44 42 41 41 40 41 41 41 42 43 43 42 40 38 37 35 33 31 29
21 26 34 43 52 58 60 61 61 60 59 58 57 55 54 53 51 49 47 46 44 43 42 41 41 41 42 42 42 41 40 38 37 35 33 31 29 27
17 19 24 31 40 49 57 61 63 63 63 62 61 60 59 58 56 54 51 49 48 46 44 43 42 42 41 41 40 39 38 37 36 35 34 32 30 28
Wind_Direction
243 242 243 244 244 244 245 246 245 244 243 241 241 241 240 239 238 238 237 237 236 236 236 238 240 242 245 246 247 249 249 249 249 249 250 251 253 256
242 239 237 239 240 240 240 242 243 243 243 241 240 239 239 238 237 237 237 236 235 235 236 237 239 241 243 246 247 248 249 250 251 251 252 253 255 258
238 232 230 234 234 235 236 238 240 241 242 241 240 239 239 238 238 238 238 238 237 237 238 239 240 242 243 245 247 248 250 251 251 252 253 255 256 258
228 220 220 227 230 231 233 235 236 238 240 241 240 239 238 238 238 238 238 237 237 238 239 240 242 243 244 245 247 249 250 251 252 253 254 255 256 257
217 215 220 226 227 229 231 233 234 236 239 240 240 239 238 237 237 237 237 237 237 238 239 241 242 243 244 246 247 248 250 251 252 252 253 255 256 256
212 216 221 225 229 232 234 236 236 237 238 239 238 238 237 236 235 236 236 236 237 238 239 240 241 243 244 246 247 248 250 251 251 251 252 253 254 255
219 220 221 223 228 232 234 236 237 237 237 236 235 234 234 235 234 234 235 236 236 237 238 241 243 244 245 247 248 249 251 251 251 252 252 252 253 253
234 233 229 227 228 226 227 230 233 235 236 237 235 232 232 233 234 235 236 236 238 239 241 242 245 247 248 249 250 250 251 251 251 252 252 252 252 252
238 240 239 238 238 234 230 231 232 235 237 238 237 235 234 234 235 237 238 239 240 242 243 244 244 245 246 247 247 247 248 248 249 249 250 250 251 252
238 241 242 242 243 241 238 236 236 236 238 239 238 236 234 234 234 235 236 237 238 239 239 241 241 241 242 243 244 245 246 247 247 247 248 249 250 250
237 239 240 241 240 240 239 239 238 236 237 238 237 234 232 231 231 232 233 234 235 235 236 237 238 240 241 243 244 245 245 246 246 247 248 249 249 250
238 238 238 238 238 237 236 236 236 235 234 234 233 232 230 228 229 230 231 233 234 235 235 237 238 241 243 245 245 246 246 246 246 247 248 250 250 250
237 238 237 236 235 235 233 231 231 231 230 230 230 230 229 228 229 231 232 233 235 237 238 239 241 242 245 246 246 246 246 247 248 248 248 249 248 248
234 235 235 234 232 232 231 229 227 226 226 226 228 229 229 229 230 231 234 237 239 240 241 241 242 243 244 245 245 246 247 248 248 247 247 245 244 242
233 233 232 231 229 228 228 226 225 224 225 225 227 229 230 230 231 233 236 239 242 242 243 243 243 243 244 244 245 246 246 246 244 243 241 239 237 236
234 232 231 230 228 227 226 225 224 224 225 226 227 228 229 229 230 233 236 239 241 242 243 242 241 242 244 245 245 244 243 241 238 235 234 233 233 233
236 233 231 231 229 227 226 227 227 226 226 227 227 227 227 228 230 232 235 237 240 241 242 240 239 239 240 241 240 238 236 233 232 229 228 229 230 230
238 236 233 231 230 229 228 227 227 227 226 226 227 227 227 229 231 233 235 237 239 240 239 237 236 236 235 235 234 231 229 228 225 223 223 225 228 229
238 237 236 234 232 231 229 228 227 227 227 226 227 227 228 230 232 234 236 237 238 239 238 235 233 232 231 231 229 227 226 224 223 223 223 224 228 231
241 238 236 235 234 232 231 230 229 228 227 227 227 227 228 229 231 233 235 236 238 238 236 233 231 230 230 230 229 229 228 227 227 226 226 227 230 234
249 242 238 236 235 234 233 232 231 230 229 228 228 228 229 229 231 232 233 234 236 236 235 232 230 230 230 229 229 229 228 227 227 227 227 227 230 234
262 251 243 239 236 234 234 234 233 232 231 231 230 230 230 231 232 232 233 234 234 234 233 231 229 228 228 228 228 228 226 225 225 226 226 226 229 235
276 263 252 244 239 236 234 234 234 233 233 232 232 232 232 233 233 233 233 234 233 233 232 231 228 226 226 226 226 227 226 224 223 225 228 231 236 241
Height
5500 5509 5518 5527 5535 5543 5551 5559 5568 5578 5588 5597 5605 5613 5620 5627 5634 5640 5647 5654 5661 5667 5673 5679 5684 5689 5695 5700 5705 5709 5715 5720 5724 5729 5734 5738 5742 5746
5477 5487 5498 5507 5515 5522 5530 5537 5545 5555 5565 5576 5585 5594 5602 5609 5616 5623 5630 5638 5645 5651 5658 5664 5670 5675 5680 5685 5690 5695 5700 5705 5710 5715 5719 5724 5728 5732
5459 5470 5482 5491 5498 5504 5511 5517 5525 5534 5543 5553 5564 5574 5582 5591 5599 5605 5613 5621 5628 5635 5642 5648 5654 5660 5665 5669 5674 5679 5684 5689 5694 5699 5704 5709 5713 5717
5444 5455 5467 5475 5482 5487 5494 5500 5507 5515 5524 5533 5543 5553 5562 5571 5579 5587 5595 5603 5611 5618 5625 5631 5637 5642 5647 5652 5657 5662 5668 5673 5678 5684 5689 5694 5697 5700
5433 5444 5453 5460 5465 5471 5478 5485 5493 5501 5509 5517 5524 5533 5542 5552 5560 5569 5577 5585 5593 5600 5607 5613 5619 5625 5631 5636 5641 5646 5651 5657 5662 5667 5671 5676 5681 5685
5423 5431 5439 5445 5452 5458 5465 5472 5480 5488 5496 5503 5509 5517 5526 5534 5542 5551 5560 5568 5576 5583 5590 5596 5602 5608 5615 5620 5625 5630 5634 5639 5644 5649 5654 5659 5664 5668
5413 5420 5427 5433 5439 5445 5452 5460 5468 5475 5483 5490 5496 5504 5511 5519 5528 5536 5544 5551 5558 5565 5573 5581 5588 5593 5596 5602 5607 5612 5618 5622 5627 5633 5638 5643 5648 5652
5404 5408 5414 5420 5426 5433 5440 5448 5455 5463 5470 5477 5484 5491 5498 5506 5514 5521 5529 5537 5545 5554 5559 5564 5569 5575 5581 5587 5592 5597 5601 5606 5611 5616 5621 5626 5631 5636
5395 5398 5403 5408 5414 5421 5429 5437 5444 5451 5458 5465 5471 5477 5485 5493 5501 5509 5515 5522 5530 5537 5542 5547 5552 5558 5565 5570 5575 5580 5585 5590 5595 5600 5605 5610 5615 5620
5385 5389 5393 5398 5404 5410 5418 5425 5432 5439 5446 5452 5459 5465 5471 5478 5486 5494 5501 5508 5514 5520 5526 5532 5537 5543 5549 5554 5559 5564 5570 5575 5580 5585 5590 5595 5600 5604
5375 5378 5382 5388 5393 5399 5406 5413 5420 5427 5434 5440 5446 5452 5458 5466 5473 5480 5487 5494 5500 5506 5513 5518 5523 5528 5533 5539 5544 5550 5556 5560 5564 5569 5575 5580 5585 5589
5363 5367 5371 5375 5380 5386 5392 5399 5407 5414 5422 5429 5435 5441 5447 5453 5460 5467 5474 5481 5487 5493 5499 5505 5510 5514 5519 5525 5530 5536 5540 5545 5550 5555 5560 5565 5570 5574
5350 5354 5357 5362 5368 5373 5379 5386 5393 5401 5408 5416 5423 5429 5436 5442 5449 5455 5462 5468 5475 5480 5486 5491 5496 5501 5506 5511 5516 5521 5525 5531 5536 5541 5546 5550 5555 5560
5337 5341 5345 5350 5355 5360 5366 5373 5380 5387 5395 5403 5411 5417 5424 5430 5437 5443 5450 5456 5462 5467 5472 5477 5482 5487 5492 5496 5502 5506 5511 5516 5522 5527 5532 5536 5541 5546
5324 5329 5334 5338 5343 5349 5354 5361 5368 5375 5383 5391 5398 5405 5412 5418 5425 5431 5437 5443 5448 5453 5458 5463 5468 5473 5477 5482 5487 5492 5497 5503 5509 5514 5519 5524 5529 5534
5309 5315 5321 5326 5332 5337 5343 5349 5356 5364 5371 5379 5386 5393 5399 5406 5412 5418 5424 5430 5435 5439 5444 5449 5454 5459 5464 5469 5473 5478 5484 5490 5496 5502 5507 5513 5518 5524
5294 5301 5307 5313 5319 5325 5331 5338 5345 5352 5359 5367 5374 5381 5387 5394 5400 5406 5412 5418 5422 5426 5431 5436 5441 5446 5452 5457 5462 5467 5473 5478 5485 5491 5497 5502 5508 5514
5280 5286 5293 5299 5306 5312 5319 5326 5333 5340 5347 5354 5362 5368 5375 5382 5388 5394 5400 5406 5410 5415 5419 5424 5429 5435 5440 5446 5451 5457 5463 5469 5475 5481 5487 5493 5498 5504
5264 5271 5278 5285 5291 5298 5306 5313 5320 5328 5335 5342 5349 5356 5363 5369 5376 5382 5388 5394 5399 5403 5408 5413 5418 5424 5430 5436 5442 5447 5454 5460 5466 5472 5479 5484 5489 5495
5248 5254 5261 5269 5276 5284 5291 5299 5307 5314 5322 5329 5336 5343 5350 5357 5364 5370 5376 5382 5387 5392 5398 5403 5409 5414 5420 5426 5432 5438 5444 5451 5457 5463 5469 5475 5480 5485
5235 5239 5245 5252 5260 5268 5276 5284 5292 5300 5308 5315 5323 5330 5337 5345 5352 5358 5365 5371 5377 5382 5388 5393 5399 5405 5410 5416 5422 5428 5435 5441 5447 5453 5460 5466 5471 5475
5225 5227 5231 5236 5243 5251 5259 5268 5276 5284 5293 5301 5309 5317 5324 5332 5339 5346 5353 5359 5365 5371 5377 5384 5390 5395 5401 5407 5413 5419 5425 5432 5438 5444 5450 5456 5461 5465
5218 5219 5220 5224 5228 5234 5242 5251 5259 5268 5277 5286 5294 5302 5310 5318 5326 5333 5340 5347 5354 5360 5366 5373 5380 5386 5392 5398 5404 5410 5416 5423 5430 5435 5441 5446 5451 5455